TimeCST,TemperatureF,Dew PointF,Humidity,Sea Level PressureIn,VisibilityMPH,Wind Direction,Wind SpeedMPH,Gust SpeedMPH,PrecipitationIn,Events,Conditions,WindDirDegrees,DateUTC
12:53 AM,35.1,27.0,72,30.39,10.0,Calm,Calm,-,N/A,,Clear,0,2012-11-17 06:53:00
1:53 AM,33.1,27.0,78,30.39,10.0,Calm,Calm,-,N/A,,Clear,0,2012-11-17 07:53:00
2:53 AM,30.9,26.1,82,30.40,10.0,Calm,Calm,-,N/A,,Clear,0,2012-11-17 08:53:00
3:53 AM,30.0,24.1,79,30.40,7.0,Calm,Calm,-,N/A,,Clear,0,2012-11-17 09:53:00
4:53 AM,30.9,25.0,79,30.41,10.0,Calm,Calm,-,N/A,,Clear,0,2012-11-17 10:53:00
5:53 AM,28.9,24.1,82,30.42,9.0,Calm,Calm,-,N/A,,Clear,0,2012-11-17 11:53:00
6:53 AM,30.0,24.1,79,30.43,10.0,Calm,Calm,-,N/A,,Clear,0,2012-11-17 12:53:00
7:53 AM,35.1,27.0,72,30.43,10.0,Calm,Calm,-,N/A,,Clear,0,2012-11-17 13:53:00
8:53 AM,43.0,30.0,60,30.46,10.0,Calm,Calm,-,N/A,,Clear,0,2012-11-17 14:53:00
9:53 AM,52.0,32.0,47,30.46,10.0,SSE,8.1,-,N/A,,Clear,150,2012-11-17 15:53:00
10:53 AM,55.9,30.0,37,30.45,10.0,Variable,5.8,-,N/A,,Clear,0,2012-11-17 16:53:00
11:53 AM,59.0,28.0,31,30.42,10.0,South,8.1,16.1,N/A,,Clear,170,2012-11-17 17:53:00
12:53 PM,60.1,28.0,30,30.38,10.0,South,6.9,-,N/A,,Clear,170,2012-11-17 18:53:00
1:53 PM,61.0,28.0,29,30.37,10.0,SSW,4.6,-,N/A,,Clear,210,2012-11-17 19:53:00
2:53 PM,62.1,26.1,25,30.36,10.0,South,8.1,-,N/A,,Clear,180,2012-11-17 20:53:00
3:53 PM,64.0,25.0,23,30.34,10.0,SE,9.2,-,N/A,,Clear,140,2012-11-17 21:53:00
4:53 PM,62.1,26.1,25,30.33,10.0,SSE,4.6,-,N/A,,Clear,150,2012-11-17 22:53:00
5:53 PM,55.9,26.1,32,30.33,10.0,SE,3.5,-,N/A,,Clear,130,2012-11-17 23:53:00
6:53 PM,55.9,26.1,32,30.33,10.0,ESE,4.6,-,N/A,,Clear,120,2012-11-18 00:53:00
7:53 PM,48.0,28.9,48,30.34,10.0,Calm,Calm,-,N/A,,Clear,0,2012-11-18 01:53:00
8:53 PM,45.0,28.0,52,30.34,10.0,Calm,Calm,-,N/A,,Clear,0,2012-11-18 02:53:00
9:53 PM,42.1,28.0,58,30.34,10.0,Calm,Calm,-,N/A,,Clear,0,2012-11-18 03:53:00
10:53 PM,41.0,28.0,60,30.33,10.0,Calm,Calm,-,N/A,,Clear,0,2012-11-18 04:53:00
11:53 PM,42.1,28.0,58,30.33,10.0,Calm,Calm,-,N/A,,Clear,0,2012-11-18 05:53:00